Theta_e
340 340 338 333 328 327 331 333 334 335 334 334 335 334 336 336 336 336 336 336 334 333 333 335 335 333 332 332 331 332 332 332 332 332 332 333 334 334 332 330 330 329 328 329 330 330 330 330 329 328 328 328 329 331 330 329 328 328 329 328 328 328 327 327 327 327 328 329 330 330 330 330 329 330 331 331 330 327 327 328 327 328 329 329 329
341 341 340 338 330 328 333 335 335 336 336 337 337 336 336 336 336 335 336 336 335 333 334 334 335 333 332 332 332 332 333 332 332 332 332 333 334 333 330 328 329 329 328 329 329 330 330 329 328 328 328 330 331 331 330 328 328 328 328 328 329 329 327 327 328 328 330 330 330 331 330 330 330 330 330 330 330 329 327 327 327 328 329 329 329
341 341 340 338 332 330 333 335 335 336 338 338 336 336 336 337 337 336 336 336 335 334 334 334 334 332 332 333 333 333 333 333 332 331 332 333 333 331 329 328 329 329 329 329 329 330 329 329 329 328 330 332 332 331 330 328 328 328 328 329 328 329 328 327 328 329 330 330 330 331 330 330 329 329 329 329 329 329 329 329 328 328 328 329 329
341 341 340 339 336 335 334 334 336 338 338 338 337 335 336 337 338 338 337 336 335 334 334 334 333 332 333 333 333 333 333 333 332 331 331 332 332 330 329 330 330 329 329 329 329 329 329 328 329 329 330 332 332 332 330 328 328 329 330 330 329 329 327 326 328 329 330 330 330 330 330 329 328 328 329 329 329 329 329 330 329 329 330 329 329
340 341 340 339 338 338 336 335 337 339 338 338 337 335 335 336 336 337 337 336 335 334 334 334 333 332 333 333 333 333 332 331 331 330 330 331 331 330 330 330 329 329 329 329 330 329 328 328 328 328 329 329 330 332 331 328 329 330 331 330 330 330 328 327 326 327 329 331 330 330 330 329 329 329 328 328 328 329 329 329 329 329 329 329 329
339 340 340 339 338 338 337 337 338 338 338 338 337 335 335 335 335 336 337 336 335 334 334 334 333 333 333 333 332 332 331 331 330 331 330 330 330 330 331 329 329 329 329 329 329 328 327 328 327 327 327 327 328 330 331 329 329 331 330 330 330 331 330 329 327 327 329 329 329 330 329 328 330 329 329 328 328 328 329 329 328 328 329 329 329
338 339 339 338 337 337 338 338 338 338 337 337 337 335 335 335 336 336 337 336 334 334 334 334 334 333 332 332 331 331 331 331 331 331 330 330 330 330 330 329 328 329 328 328 328 327 327 327 327 327 327 326 326 327 328 328 328 329 330 330 331 331 330 330 329 328 329 328 327 328 328 328 330 329 329 328 328 328 328 328 327 328 328 328 328
337 339 338 337 337 337 337 337 337 337 337 337 336 335 335 335 336 337 337 336 335 334 334 334 334 332 331 331 331 332 332 330 330 330 330 330 330 330 330 329 329 328 327 328 327 327 327 327 327 327 327 326 325 325 325 325 326 327 328 329 331 331 329 330 330 329 329 328 326 328 328 328 329 329 329 328 328 328 328 327 327 327 327 327 327
337 338 337 336 336 336 337 337 337 336 336 336 335 335 335 335 335 336 336 335 334 334 334 334 333 331 331 332 332 333 332 329 329 329 329 330 329 330 330 329 328 328 327 326 326 327 326 327 326 326 326 325 325 326 325 325 326 325 326 326 328 329 328 329 330 329 329 329 327 327 329 328 328 329 330 328 328 329 328 327 327 327 326 326 326
337 337 336 336 336 336 336 337 336 335 335 335 335 335 334 334 334 335 335 334 334 334 334 334 332 331 332 332 332 332 330 329 328 327 329 330 330 329 327 326 326 327 326 325 325 324 323 323 323 322 322 320 322 324 324 324 324 324 325 324 324 326 328 328 328 328 328 328 328 328 328 328 328 329 329 329 328 328 328 327 326 327 326 326 325
336 335 335 335 335 335 336 336 336 335 335 335 334 334 334 334 334 334 334 334 334 334 334 333 331 331 333 332 331 330 329 329 328 327 328 330 330 328 325 324 325 326 325 323 323 322 320 319 320 320 319 318 319 321 322 322 321 320 322 322 322 324 327 328 327 327 326 327 328 328 328 327 328 328 328 329 328 328 328 328 327 326 326 325 324
335 334 334 334 334 335 336 336 337 336 336 335 334 333 333 333 333 334 334 333 333 332 332 331 330 331 331 330 330 329 328 329 329 327 328 329 329 328 326 326 326 326 325 323 321 319 317 317 317 319 318 317 319 320 320 320 319 317 318 320 322 323 324 326 328 327 326 327 328 328 327 328 328 329 328 328 328 328 328 328 326 325 324 324 324
334 333 334 334 335 336 336 336 337 336 335 334 334 333 333 333 333 333 333 331 330 330 330 329 329 330 330 329 329 327 326 328 328 326 327 328 328 327 326 325 325 324 323 321 317 314 315 315 316 319 319 319 320 319 317 317 317 318 319 321 324 323 323 326 329 327 326 328 329 328 328 329 329 329 329 328 328 327 328 327 325 324 324 324 323
332 333 333 334 335 335 335 336 336 335 334 334 334 333 333 332 332 332 331 329 328 329 329 329 329 330 329 329 329 326 326 327 326 324 326 326 325 324 323 323 321 319 317 316 313 313 317 317 316 317 318 317 316 314 314 315 318 321 322 322 324 323 323 326 327 325 325 328 330 329 329 329 329 329 328 328 328 327 327 326 325 325 324 323 322
331 332 332 333 334 334 335 335 335 334 334 333 333 333 333 332 331 332 330 327 328 329 329 330 330 329 329 328 327 327 327 326 324 323 321 319 318 318 319 319 316 315 316 316 314 316 318 316 313 311 310 310 311 312 316 318 320 322 323 323 323 323 323 324 324 323 323 325 327 329 329 329 329 328 328 328 327 327 327 325 324 323 322 322 321
331 332 332 333 332 333 334 335 334 333 333 333 333 333 333 332 331 331 329 327 328 329 329 330 329 329 329 327 327 328 328 325 323 320 315 313 314 316 319 319 316 316 319 317 316 317 316 312 309 306 306 309 313 316 319 321 321 322 322 322 322 322 321 322 322 321 321 322 323 326 328 329 328 328 328 328 327 326 326 324 322 321 321 321 321
331 332 333 333 332 332 333 333 333 333 332 333 333 333 333 332 331 331 330 329 328 328 328 327 326 327 327 327 328 328 326 323 321 317 314 315 317 320 321 320 318 318 317 315 316 317 314 310 308 305 306 310 315 318 320 321 321 321 320 321 320 320 320 320 321 320 321 321 322 324 328 329 327 327 328 327 327 326 324 323 322 321 320 321 320
332 332 333 333 332 332 332 332 333 333 332 332 333 333 333 332 331 331 331 329 326 326 328 327 325 325 326 327 327 326 325 322 319 317 317 318 320 322 322 319 317 316 314 314 317 316 313 311 307 304 306 310 315 318 319 320 321 320 319 319 318 319 319 318 318 317 318 321 321 323 327 328 326 327 327 325 325 324 322 321 321 320 319 319 319
332 332 332 332 331 332 332 331 332 333 332 332 332 333 333 332 332 331 330 328 325 326 328 328 327 326 327 327 326 326 326 323 320 318 318 319 322 323 322 317 314 312 312 315 318 317 313 310 307 305 305 308 312 316 318 319 320 319 319 319 318 318 318 316 316 317 317 319 320 322 325 326 324 325 324 322 323 323 321 319 318 318 318 318 318
331 331 331 331 331 331 332 332 332 333 333 333 332 333 333 332 332 333 331 328 325 325 327 328 327 327 327 327 326 327 326 323 320 318 318 319 321 323 322 316 311 310 313 317 319 318 314 309 307 305 305 306 308 313 318 318 318 319 319 318 317 317 317 317 318 319 318 319 319 321 323 323 323 324 322 321 322 321 320 319 318 317 317 317 316
331 331 331 331 331 331 332 332 332 333 333 333 333 333 332 332 332 333 331 329 326 325 326 328 327 327 327 326 327 328 327 324 319 318 318 318 319 322 322 316 310 310 314 319 321 320 317 313 310 307 305 305 306 311 316 318 318 317 316 315 315 316 317 318 319 319 320 320 320 321 322 322 323 324 321 321 322 321 320 320 319 318 317 317 316
330 330 330 330 330 330 331 331 332 332 332 332 332 331 331 332 332 332 331 330 327 325 326 327 327 328 328 327 328 328 327 325 320 319 321 320 320 322 321 317 313 310 313 319 321 320 319 318 315 311 307 306 306 309 314 317 316 312 309 310 314 316 317 318 318 319 319 319 319 320 320 321 323 323 322 321 321 320 319 319 319 319 318 318 317
326 327 328 328 328 328 329 330 331 331 331 331 331 331 331 331 331 332 332 330 328 327 329 328 327 329 329 328 329 329 328 326 321 320 322 323 322 322 321 319 317 314 315 320 321 321 320 319 318 314 309 307 307 307 311 314 312 308 307 309 314 316 317 318 318 318 318 319 320 319 318 319 320 320 321 321 321 320 319 319 319 319 319 319 318
323 324 325 325 326 327 328 328 329 329 330 330 331 331 331 331 331 331 331 331 329 329 330 330 329 329 330 330 329 329 329 326 323 321 322 323 322 322 321 321 320 318 318 320 320 319 320 319 317 314 309 307 306 305 308 310 310 311 311 312 314 316 317 318 318 317 318 319 319 319 319 318 318 319 320 320 320 320 320 319 319 320 320 320 319
321 322 323 324 325 326 327 327 327 328 327 328 330 330 329 329 330 330 330 331 330 330 330 330 330 330 330 330 329 329 329 327 324 323 323 323 321 322 322 322 320 319 318 318 317 317 319 319 317 314 310 307 305 305 307 309 310 312 313 313 314 315 316 317 316 316 317 317 318 319 319 319 319 320 320 320 320 319 319 319 319 319 319 319 318
320 321 322 323 324 325 326 326 327 326 325 326 328 328 327 328 328 328 329 329 329 329 330 330 330 330 330 329 328 328 328 326 324 324 324 323 322 322 322 321 320 319 318 315 313 312 314 316 317 315 311 308 306 307 309 309 309 310 311 311 312 313 314 315 315 315 316 316 316 316 316 317 319 319 320 320 319 319 318 318 318 317 317 318 317
319 320 321 322 323 324 324 325 325 325 325 325 326 326 326 326 326 327 328 328 327 327 329 329 329 329 329 328 327 326 326 325 324 324 324 323 322 321 322 320 319 318 317 315 312 308 309 313 316 315 311 308 308 309 309 310 310 310 310 310 310 311 313 314 315 317 318 317 317 316 314 314 316 317 318 317 316 316 316 316 317 316 316 317 317
317 318 319 320 322 323 323 323 323 324 324 324 324 325 325 325 325 327 328 328 327 327 328 329 329 328 327 327 326 326 325 325 324 323 323 323 322 321 321 320 318 318 316 315 312 308 308 313 315 314 310 307 308 309 310 311 312 312 311 311 312 313 315 315 317 318 318 318 319 318 318 318 318 317 317 317 316 316 317 317 317 316 316 316 317
315 316 318 320 321 322 323 323 323 323 323 323 323 323 323 324 325 326 327 327 327 327 327 328 328 327 327 327 326 325 325 325 324 322 322 323 322 321 320 318 317 317 316 315 313 310 308 309 310 310 308 306 308 311 311 312 315 315 314 314 314 315 317 318 319 319 318 318 319 319 319 319 319 318 317 317 317 318 318 319 319 318 317 317 318
315 317 318 319 320 321 322 322 322 322 322 322 322 323 323 324 324 325 326 326 326 327 327 327 327 327 327 327 326 325 325 324 323 323 323 322 322 321 319 317 316 316 314 313 312 310 307 306 307 308 307 306 308 310 310 310 312 314 316 317 315 316 318 319 319 319 319 318 319 320 319 318 318 318 318 317 317 317 317 318 318 318 318 318 318
313 313 315 317 318 319 320 321 322 322 322 322 322 322 323 323 323 323 324 324 325 326 326 326 326 326 326 326 325 325 325 323 322 323 323 322 322 321 320 317 316 317 315 312 311 309 307 307 309 310 307 307 308 308 308 308 309 310 314 318 319 320 319 319 320 321 321 320 320 320 319 318 318 318 317 318 318 317 317 317 317 317 317 317 318
310 310 314 317 317 318 319 320 320 321 321 322 321 322 322 322 321 322 322 323 324 324 324 324 325 325 325 325 324 324 324 323 322 320 321 322 322 320 319 316 315 317 317 315 313 311 308 308 310 310 309 309 309 309 310 310 310 311 313 317 322 323 321 321 321 321 322 323 322 321 320 319 318 318 317 317 317 317 317 317 317 317 317 317 317
308 309 312 315 316 316 317 318 319 320 320 320 321 322 322 321 321 321 321 322 323 323 323 323 323 322 322 323 322 322 322 323 322 320 320 322 321 318 316 312 311 315 317 316 315 314 312 310 310 309 309 311 311 311 311 311 312 313 313 316 321 323 323 322 323 322 323 324 324 323 322 321 319 318 317 317 317 317 317 317 317 317 318 318 317
307 308 310 313 315 315 316 317 318 318 319 319 320 321 320 321 321 321 321 321 321 322 322 322 322 321 320 320 321 321 321 322 321 321 321 321 320 318 316 312 310 311 314 316 318 318 317 315 313 312 313 314 313 313 313 311 311 313 315 317 319 321 322 322 323 323 323 323 324 323 323 322 322 321 318 317 317 317 318 318 317 317 317 317 317
305 306 309 312 314 314 315 316 316 316 317 318 318 319 319 319 320 321 321 320 321 321 321 322 322 321 320 319 320 320 320 321 320 320 320 320 319 318 317 315 312 311 311 313 317 319 319 317 316 315 315 315 314 314 313 313 313 314 316 318 319 319 319 319 320 321 321 321 322 321 321 321 321 322 320 318 317 317 318 319 319 318 318 318 317
303 305 308 311 312 312 312 313 314 314 315 316 316 316 317 318 318 319 319 319 320 321 321 321 321 321 320 319 319 320 320 320 320 320 319 320 319 318 316 315 313 312 313 313 315 319 319 318 317 315 315 315 315 315 315 314 314 316 317 319 319 319 318 318 318 319 319 320 320 320 320 320 320 321 320 318 318 318 318 319 320 320 319 318 317
303 303 305 307 308 308 309 310 311 312 313 314 314 314 316 317 317 317 317 318 319 319 319 319 319 319 320 319 319 320 320 320 319 319 319 319 319 318 317 316 315 315 315 315 316 319 319 319 317 316 317 317 316 316 316 315 316 317 318 319 319 319 319 319 319 319 319 320 320 320 320 320 319 320 319 318 318 318 317 317 319 320 319 317 317
304 304 304 305 305 306 306 307 308 309 310 311 312 313 314 315 314 314 314 315 316 316 316 317 317 318 318 318 318 318 318 318 318 318 318 319 319 319 318 318 318 318 318 317 318 320 319 319 318 317 318 319 318 317 318 317 317 317 318 318 319 319 319 319 319 319 318 319 320 319 319 319 319 319 319 318 318 317 316 316 318 319 319 318 317
305 306 306 305 305 305 305 305 306 306 307 308 309 311 312 312 311 311 311 311 311 311 312 313 313 314 315 316 316 316 316 317 317 317 318 319 319 319 319 318 319 319 319 319 319 319 319 319 319 318 318 318 318 318 318 318 318 318 318 319 319 318 319 319 319 319 319 318 319 319 319 319 319 319 318 318 317 316 315 316 318 319 319 318 318
305 306 306 305 306 306 306 305 305 305 306 307 307 309 309 309 309 309 309 308 307 307 308 309 309 310 311 312 313 314 314 315 315 315 315 316 317 318 318 318 318 318 318 318 317 318 318 318 318 318 318 318 318 317 317 317 317 317 317 318 318 319 319 319 320 320 320 319 319 320 319 319 318 317 317 316 316 316 315 317 318 319 319 318 318
303 304 305 306 306 306 306 304 302 302 304 306 307 308 308 308 308 308 308 307 305 305 306 306 307 307 308 308 309 310 311 312 312 312 312 312 313 314 314 315 316 315 316 315 315 315 316 316 316 316 317 317 317 316 316 317 317 317 317 317 317 317 318 318 318 317 318 318 319 318 318 317 317 316 317 316 316 316 316 317 318 318 318 318 317
300 301 302 304 304 304 303 302 301 300 301 302 304 307 308 308 308 308 307 306 306 306 306 306 306 306 306 306 306 307 307 308 308 308 309 309 310 310 311 311 312 312 313 313 312 312 313 313 314 314 315 314 314 314 315 316 316 315 315 316 315 315 315 316 315 314 314 316 316 316 316 316 316 316 316 316 316 316 316 317 317 317 317 316 316
297 297 298 299 299 300 300 299 299 299 299 299 300 302 304 305 305 305 304 304 305 306 307 307 308 308 308 307 307 307 307 307 307 307 307 307 307 308 308 309 309 309 309 310 311 310 310 310 311 311 312 311 311 312 312 313 313 313 313 313 313 313 314 314 314 314 314 314 314 314 315 315 315 315 315 315 315 316 316 316 316 317 316 315 315
297 297 297 297 297 297 297 297 297 297 297 297 297 298 299 300 301 300 300 300 300 301 302 303 305 307 308 308 308 308 308 308 307 307 307 306 306 305 306 306 307 307 307 307 307 307 307 307 307 308 308 308 308 309 309 310 310 311 311 312 312 312 312 312 312 312 313 313 313 313 313 312 313 313 314 314 314 314 314 315 315 316 316 315 314
297 296 296 297 296 296 296 296 296 295 296 296 296 296 296 297 297 297 297 296 297 297 297 297 298 300 302 303 304 305 305 304 303 304 304 303 303 303 303 303 303 304 304 304 305 304 305 305 305 305 305 305 306 306 306 307 308 308 309 310 310 310 309 309 310 310 310 311 311 312 311 312 312 312 313 313 313 313 313 312 312 313 314 315 314
296 296 296 297 297 296 296 295 295 295 295 295 295 296 296 296 296 296 296 296 296 296 296 296 296 296 297 297 298 299 299 298 298 298 298 299 299 299 300 300 300 300 300 301 301 301 301 301 301 301 302 302 302 302 303 303 304 304 304 305 306 306 307 307 307 307 308 308 309 310 310 311 311 311 311 311 311 311 312 311 310 309 309 311 312
295 295 296 297 297 296 296 295 295 295 295 296 296 296 296 296 296 295 295 295 295 295 295 295 296 296 296 296 296 296 296 296 296 296 296 296 296 297 297 297 297 297 297 297 297 297 297 297 297 297 298 298 298 298 298 298 298 298 299 299 300 300 301 302 302 303 303 304 305 306 307 307 307 307 307 307 307 308 308 309 309 308 307 307 309
293 294 296 297 297 296 296 296 295 295 295 296 296 296 296 296 295 295 295 295 295 295 295 295 295 295 295 295 295 296 296 296 296 296 296 296 296 296 296 296 296 296 296 296 296 296 296 296 296 296 296 296 296 296 296 297 296 296 297 297 297 297 297 297 297 298 299 299 300 301 302 302 303 303 304 304 305 306 306 306 306 307 307 307 307
293 294 295 296 296 296 296 295 295 295 295 295 296 295 295 295 295 294 294 294 294 295 296 296 296 296 296 296 296 296 295 295 295 295 295 295 295 295 295 295 295 295 295 295 295 295 295 295 295 296 295 296 295 296 296 296 296 296 296 297 297 297 296 296 296 296 296 297 297 297 298 299 300 301 302 304 305 306 306 306 305 305 306 308 308
294 295 296 296 297 297 296 296 295 295 295 295 295 295 294 294 294 294 294 294 295 296 296 296 296 296 296 296 296 296 296 296 296 295 295 295 294 294 294 294 295 295 295 295 295 295 295 295 294 294 295 295 295 295 295 295 295 295 296 296 296 296 297 296 296 296 296 296 296 296 297 299 301 303 305 306 306 307 307 306 304 303 304 306 307
295 296 296 296 297 297 296 296 296 295 295 295 294 294 294 294 294 294 294 296 297 297 297 296 295 295 295 296 296 296 295 295 295 295 295 295 294 294 294 294 294 294 294 294 294 294 294 294 294 294 294 294 294 294 294 294 294 294 294 295 295 296 296 296 296 296 296 296 298 300 301 302 303 304 304 304 304 305 305 304 303 303 304 305 305
Wind_Speed
16 16 17 17 21 23 18 14 12 11 12 10 8 10 14 20 23 23 21 16 15 18 18 17 18 18 16 16 17 18 19 19 18 16 15 15 13 12 12 13 13 12 11 11 11 10 10 10 9 9 8 9 8 8 8 8 8 8 7 6 6 6 6 6 6 7 7 7 7 6 5 5 4 4 4 4 5 7 8 7 6 6 6 5 6
16 18 18 16 20 22 14 9 10 10 9 8 8 9 11 15 18 20 18 13 12 15 17 18 19 18 17 17 17 18 19 19 18 17 16 15 15 13 12 12 11 11 11 10 10 9 9 9 9 9 9 8 8 9 9 9 8 8 7 7 6 5 6 7 7 6 6 6 7 7 6 5 4 4 5 4 4 5 6 7 6 6 6 6 6
17 18 18 18 21 20 13 10 10 9 9 9 9 11 12 12 13 14 14 13 13 14 16 18 18 18 18 17 17 18 19 18 17 16 16 15 16 15 13 12 11 10 10 10 10 9 9 8 8 9 9 8 8 9 9 9 8 9 8 8 7 6 6 7 8 7 6 6 6 6 6 6 6 7 6 6 5 4 5 5 5 5 5 6 6
19 17 16 17 18 16 13 11 11 9 9 9 10 11 13 15 14 14 15 15 15 16 17 17 18 18 16 15 16 17 17 17 16 16 16 15 16 15 13 13 11 10 9 9 8 8 8 8 8 9 9 9 8 7 8 9 8 9 9 8 7 6 6 7 9 9 6 6 6 5 6 7 8 8 6 6 7 5 6 5 4 5 4 5 5
19 17 14 14 14 14 13 13 12 10 8 9 11 11 11 13 15 16 16 15 16 18 18 17 18 18 16 15 17 17 16 17 17 17 16 16 16 15 13 12 10 9 8 8 7 7 8 8 8 9 9 9 9 7 7 8 8 8 8 8 7 6 5 6 9 9 6 6 5 4 5 6 5 8 7 5 6 6 6 5 4 5 4 4 4
18 17 14 12 12 13 15 15 13 10 8 9 10 10 9 11 14 15 14 13 15 18 17 16 18 18 18 18 17 16 16 17 17 16 16 15 15 14 12 11 9 8 8 7 7 7 7 8 8 8 8 8 8 8 7 8 8 8 8 7 7 6 6 5 7 8 7 7 6 5 4 2 2 8 7 6 6 5 5 5 5 4 4 4 4
16 17 14 11 11 11 13 13 11 8 8 9 9 8 9 9 12 14 13 12 14 16 15 16 17 17 18 18 17 15 16 16 15 15 15 13 12 12 11 10 9 8 8 7 7 7 7 8 8 8 7 7 7 7 7 7 8 8 8 7 6 7 7 6 6 7 7 8 8 6 3 1 4 7 7 8 9 6 6 5 5 6 5 5 5
15 16 13 11 11 10 10 10 9 9 8 8 8 7 8 9 10 13 13 12 12 13 14 15 17 19 19 18 15 14 14 15 15 14 13 11 11 11 10 9 9 8 8 7 7 7 7 7 8 8 7 7 6 6 6 7 7 7 7 7 7 7 8 8 8 8 7 7 9 7 3 3 5 6 6 7 9 9 8 7 6 7 7 7 6
14 14 12 11 12 11 10 11 12 11 8 6 7 7 8 11 11 12 14 13 12 12 13 15 17 19 18 16 14 13 13 14 14 13 12 11 11 11 10 9 9 8 8 8 8 7 7 7 7 7 7 7 6 6 6 6 6 6 5 6 6 6 8 9 9 9 9 8 8 7 5 5 4 4 5 5 6 8 9 9 9 8 7 6 6
12 12 12 12 12 11 11 11 12 11 9 8 9 9 10 11 12 11 13 14 12 12 14 15 16 17 15 13 13 13 13 12 12 13 13 12 12 12 11 10 9 9 9 9 9 8 8 8 8 8 7 7 7 6 6 6 6 6 5 5 5 5 7 8 8 9 10 10 9 9 9 8 6 5 5 5 6 7 8 10 10 8 7 6 6
12 11 12 11 12 12 11 12 12 10 9 11 12 11 11 11 12 11 10 12 12 13 15 16 16 15 13 11 12 13 12 11 12 13 13 12 12 12 11 10 10 9 10 11 11 10 10 10 9 9 8 8 7 6 6 5 6 7 6 5 6 6 6 7 7 7 8 9 10 11 11 10 7 5 6 6 6 6 8 11 9 8 7 6 7
12 10 11 11 13 15 13 13 14 12 12 14 13 12 12 13 15 13 11 13 14 15 17 17 17 17 14 12 12 12 11 11 12 13 12 11 11 11 10 10 10 10 10 11 11 11 10 9 9 8 9 8 8 8 7 6 7 7 6 6 6 6 6 5 5 5 5 6 7 7 6 7 6 5 6 7 6 6 9 11 10 9 8 7 7
13 11 11 11 13 14 14 14 14 12 13 15 14 13 12 14 18 17 16 18 18 20 21 19 17 18 16 13 12 12 11 11 11 12 12 12 11 12 12 12 11 12 11 11 11 11 10 9 8 8 7 8 8 9 8 7 6 5 6 6 6 6 6 5 5 5 5 6 5 5 4 5 6 5 6 7 6 7 9 11 11 10 9 10 9
11 12 13 13 14 14 14 15 14 11 13 16 15 14 13 15 18 20 21 21 21 22 21 18 17 17 15 13 13 13 11 11 11 11 11 13 14 13 13 13 13 14 14 13 12 11 10 9 8 7 7 8 8 9 9 8 7 5 5 6 6 7 8 7 6 6 7 7 6 6 5 6 5 5 6 7 7 8 9 11 12 12 11 11 11
12 13 14 14 15 14 13 14 13 12 15 17 15 14 14 16 19 21 22 22 21 21 19 16 16 15 14 13 13 13 13 12 11 10 11 14 15 15 14 14 14 15 14 13 12 11 10 9 8 7 7 8 8 10 10 10 9 8 7 7 8 9 10 9 8 8 7 6 6 6 6 6 6 5 6 7 7 7 9 10 12 13 12 12 12
12 12 13 13 14 13 12 12 11 12 15 17 17 16 15 16 20 22 22 21 20 19 18 16 15 14 13 13 13 14 14 13 12 12 12 14 15 15 14 14 15 14 13 13 13 12 11 10 8 7 7 8 10 12 12 11 11 11 10 10 10 10 10 9 8 8 7 6 6 6 6 6 6 6 7 7 8 8 9 9 9 10 12 12 12
12 12 12 13 14 12 10 10 9 11 15 18 19 18 16 16 19 22 20 19 19 18 17 17 16 14 14 15 15 14 13 12 12 13 14 14 16 15 13 13 14 14 14 15 15 13 12 9 7 7 8 10 12 13 13 13 13 12 12 11 11 10 9 7 6 6 6 6 6 7 7 6 7 8 8 8 9 9 9 9 7 7 9 11 12
11 12 11 11 11 9 9 10 10 11 14 16 18 18 17 15 17 21 20 19 20 20 19 17 16 15 15 17 17 15 13 11 11 13 14 15 16 14 13 13 14 14 15 17 16 14 12 9 8 8 9 10 12 13 13 14 13 13 12 11 11 9 7 5 5 6 6 6 7 8 8 7 8 9 10 12 12 11 9 8 7 6 6 8 10
12 12 11 10 9 7 8 9 10 11 12 13 15 16 15 14 16 20 21 21 21 21 20 18 17 17 17 18 18 16 13 12 11 13 15 16 16 13 13 13 13 14 16 18 17 15 12 11 9 9 10 10 12 13 14 14 13 12 11 10 9 8 6 6 7 7 7 7 8 9 9 8 9 11 15 16 15 13 10 8 7 7 6 7 8
11 10 9 8 7 6 7 8 10 12 11 12 14 16 14 13 15 18 21 22 23 23 22 19 18 19 19 19 18 16 14 12 12 14 16 17 17 14 13 13 12 14 17 18 17 14 13 12 11 10 10 10 12 14 14 13 12 11 10 8 9 8 7 8 9 9 8 8 8 9 9 11 12 14 18 18 15 13 11 9 8 8 8 8 7
9 9 8 8 7 7 7 8 10 11 11 12 14 14 14 15 17 17 19 21 22 23 23 20 20 20 20 21 19 16 14 13 13 15 16 16 16 14 13 13 13 14 17 17 15 14 13 12 11 11 10 10 11 14 14 12 11 10 10 9 9 9 9 8 9 8 8 8 9 9 11 13 14 16 18 16 14 13 10 8 8 7 7 7 6
7 7 7 7 7 7 7 8 10 10 10 13 13 13 14 16 17 17 17 19 21 23 22 20 20 21 21 21 20 17 15 14 14 16 15 14 14 15 13 13 13 14 16 16 14 13 13 12 11 11 10 10 10 13 14 12 11 10 10 11 11 10 10 9 9 8 8 9 9 9 11 13 14 15 15 13 12 11 8 7 6 6 6 5 5
7 7 7 6 6 7 7 7 9 9 10 12 12 12 13 14 15 16 17 18 20 21 21 19 19 21 22 21 20 19 17 15 15 16 16 14 14 14 13 13 13 13 14 14 14 14 13 12 12 11 11 11 11 13 14 12 11 11 11 13 13 12 11 10 9 8 8 8 9 10 10 11 12 13 12 11 10 9 7 6 5 5 5 5 5
8 7 6 6 6 7 7 7 8 9 10 10 9 10 11 11 13 15 16 15 16 18 19 18 17 19 21 20 19 19 18 16 15 15 15 14 13 14 14 13 13 13 13 13 13 14 13 12 12 12 12 13 13 14 14 13 12 12 12 13 13 12 11 9 8 8 8 7 8 9 9 10 10 11 10 9 8 8 7 6 5 4 4 5 6
8 8 8 8 8 7 6 6 6 7 8 10 10 9 9 12 15 16 16 15 14 14 16 18 18 18 19 19 18 18 18 16 14 14 14 12 12 14 14 13 13 13 13 13 14 14 14 13 12 12 12 13 14 14 14 14 14 14 13 12 11 11 10 9 8 8 7 7 6 7 7 8 8 7 7 7 6 6 6 5 5 5 5 6 7
7 9 10 12 12 10 8 6 5 6 6 10 13 10 7 10 14 14 14 15 15 14 14 17 18 17 18 19 18 18 18 17 15 14 13 12 12 14 13 12 13 13 13 13 14 15 16 14 12 11 12 13 14 15 14 14 14 14 13 12 11 10 9 8 8 7 7 6 6 6 6 7 7 6 6 7 6 7 6 6 6 6 6 7 8
9 10 12 15 17 15 12 9 8 8 7 8 11 10 8 7 8 9 11 15 17 17 15 16 17 16 16 17 17 17 17 17 18 17 15 12 12 13 12 11 12 12 12 12 13 15 16 14 11 11 12 14 15 15 14 13 13 12 11 10 9 9 8 7 7 6 6 6 5 5 5 5 6 6 6 7 7 8 7 7 8 7 7 8 9
10 11 14 17 18 17 15 12 11 9 8 8 8 8 6 5 7 10 12 15 17 17 15 14 15 14 12 12 14 17 17 16 17 17 16 14 13 13 12 12 12 11 11 11 12 14 15 14 13 12 13 15 15 14 14 12 11 10 9 8 8 7 7 7 7 6 6 6 5 4 4 4 5 6 6 7 7 7 7 6 7 8 8 9 9
14 14 15 17 18 18 15 13 11 10 8 9 8 8 7 6 8 11 11 12 14 15 14 14 14 14 12 12 13 16 18 17 16 16 17 17 16 15 13 12 12 11 10 10 11 12 14 15 15 14 14 15 15 14 13 12 11 9 8 7 7 7 7 7 7 7 6 6 5 4 4 4 5 6 7 7 7 7 7 6 7 7 8 9 9
18 16 16 16 17 18 16 14 13 12 10 9 8 7 8 9 9 9 10 10 10 12 13 13 13 13 13 13 14 17 19 19 18 18 20 20 19 17 15 13 13 11 10 11 11 11 12 12 13 13 13 14 14 14 14 13 11 9 8 7 7 7 8 8 8 8 7 7 6 5 5 5 6 6 7 8 8 8 9 9 8 8 8 9 9
16 16 16 15 16 17 16 14 13 12 11 11 10 9 9 10 10 9 9 9 9 9 9 9 10 10 10 11 14 19 21 20 19 19 20 21 21 21 19 16 13 12 11 11 11 11 11 11 10 10 10 11 12 13 13 13 12 10 9 8 7 8 8 8 9 8 8 8 7 7 7 7 7 8 8 9 9 9 10 11 11 11 11 11 12
14 14 16 16 16 16 16 14 13 12 11 11 11 11 10 9 9 9 8 7 7 8 8 7 6 6 6 8 12 18 21 20 18 19 20 21 23 22 21 18 14 12 11 11 9 9 10 10 9 8 9 9 10 12 12 12 12 11 11 10 9 8 9 9 9 9 8 8 8 8 9 9 9 9 9 10 11 11 11 12 13 14 14 14 14
14 14 16 17 17 17 16 15 15 14 13 13 12 12 11 11 10 10 9 8 8 9 8 7 8 8 7 6 9 14 18 20 20 21 22 22 21 19 18 17 15 13 11 10 9 9 9 10 9 8 9 10 10 11 13 14 13 13 13 13 11 10 10 10 10 10 9 9 9 9 9 10 12 11 11 12 13 13 13 14 15 17 17 17 17
14 14 16 18 19 19 19 17 16 16 16 15 14 13 13 14 13 12 11 10 11 11 10 9 10 11 11 10 9 11 14 17 18 20 22 21 20 20 19 20 21 19 15 10 9 10 11 11 11 10 10 11 11 12 13 14 15 14 14 14 14 14 13 12 12 12 11 11 10 10 10 11 12 13 13 14 14 15 16 16 17 19 19 19 18
17 17 19 20 20 21 21 20 18 18 16 16 17 16 15 15 14 12 13 13 13 14 14 13 12 11 12 11 10 9 10 11 12 13 16 17 17 19 21 22 25 26 20 13 10 12 14 13 12 11 12 13 13 14 15 15 16 16 15 16 16 16 16 16 16 16 15 14 14 14 14 14 13 14 15 15 15 17 17 16 16 17 17 17 18
20 22 23 23 23 23 24 23 22 20 18 17 17 16 15 16 15 14 14 14 14 15 16 15 14 13 12 11 10 9 9 9 9 9 12 13 15 18 21 21 23 23 19 15 12 12 13 13 12 11 13 15 15 16 17 17 18 18 18 17 17 17 17 18 18 18 18 17 17 17 17 17 17 16 17 18 16 17 18 16 15 15 14 16 18
23 25 27 26 25 25 25 25 24 23 21 20 20 18 17 18 19 19 18 15 13 14 14 14 14 14 13 11 10 10 9 9 9 9 10 11 12 14 16 18 19 18 16 14 13 12 11 11 12 12 12 14 15 16 16 17 18 18 18 18 17 17 18 18 17 18 18 18 19 19 19 19 19 19 20 20 18 18 19 17 15 14 14 17 18
24 25 26 26 25 25 24 23 24 24 22 21 20 19 19 20 22 23 23 21 19 18 18 17 16 16 13 11 10 10 11 10 9 8 9 9 9 9 10 11 12 12 11 11 11 10 9 9 10 12 11 11 14 14 14 14 15 16 17 18 18 17 17 18 18 18 18 19 20 21 21 20 20 20 21 21 19 18 17 15 14 13 14 16 18
22 22 22 22 22 22 21 21 22 23 21 19 18 17 17 18 20 21 23 24 23 22 21 20 20 19 17 15 13 12 12 11 10 8 8 8 8 7 8 8 8 8 8 7 7 7 8 9 10 11 10 10 12 12 13 13 14 15 16 17 17 16 16 17 17 15 16 17 18 20 21 20 20 21 22 21 18 16 14 12 12 13 14 17 18
18 18 18 18 18 18 17 18 20 20 18 16 16 15 16 17 17 17 19 22 21 20 19 18 19 18 18 17 16 15 14 14 14 13 10 9 7 5 5 4 6 6 6 5 5 4 4 5 6 7 8 8 9 9 11 12 14 15 16 16 16 15 13 13 13 11 11 12 15 16 18 18 19 20 19 18 15 13 11 10 11 13 14 16 17
16 15 14 13 14 14 15 16 18 17 14 12 11 11 13 14 14 15 17 18 18 17 15 15 15 15 15 15 15 14 13 13 14 13 12 11 10 8 6 4 2 3 3 3 2 2 2 3 4 5 6 6 7 7 8 9 11 12 13 14 15 14 13 13 13 12 11 10 10 11 14 15 15 15 14 14 13 12 11 12 13 13 14 16 16
17 16 14 12 12 13 13 14 15 15 13 12 9 8 9 9 9 10 13 13 13 12 12 11 11 11 11 12 12 12 12 12 12 12 11 11 11 10 10 8 7 5 4 4 4 3 2 1 1 3 4 5 5 5 6 8 9 9 9 10 11 10 12 12 10 8 8 7 7 10 13 14 12 12 12 13 12 12 13 14 15 15 15 16 17
18 17 16 14 13 12 12 12 12 11 11 10 9 8 7 6 6 7 8 8 8 7 7 7 6 6 7 7 8 8 8 8 9 8 8 8 8 8 8 8 7 6 5 4 4 3 3 3 1 2 3 4 3 3 4 6 8 8 8 9 9 9 9 10 8 7 7 8 9 12 14 13 12 13 13 13 13 14 14 15 17 18 18 18 18
18 17 15 14 13 12 11 11 10 10 10 9 8 8 6 5 5 6 6 6 6 5 4 4 3 2 2 2 3 3 3 3 4 3 3 3 3 3 3 3 3 3 3 2 2 2 3 3 3 3 4 5 5 7 8 8 8 9 9 10 11 11 12 12 13 13 14 14 15 16 16 16 16 16 15 15 15 16 16 18 18 19 20 21 20
15 15 14 12 11 11 10 10 9 9 9 8 8 7 6 5 6 6 6 6 5 5 4 4 3 2 2 1 1 1 1 2 1 1 0 0 0 1 1 2 3 4 4 5 5 5 5 5 6 6 7 8 9 11 12 13 13 13 14 14 15 16 16 16 17 18 20 21 21 21 22 22 21 20 19 18 18 18 19 20 20 20 22 24 24
12 12 11 9 8 8 8 7 7 7 7 7 7 6 6 6 6 5 5 5 5 5 5 4 4 4 3 3 2 2 2 1 1 0 0 1 2 2 3 4 4 5 6 6 7 7 7 7 8 9 10 12 12 13 15 16 16 16 17 17 18 19 20 20 21 22 23 24 24 24 25 25 24 23 22 21 21 21 21 21 21 21 23 26 27
11 11 9 8 7 7 7 6 6 6 6 7 6 6 6 6 6 5 5 4 5 5 5 5 5 5 5 5 4 4 4 4 3 2 2 2 1 1 1 2 2 3 4 4 5 5 6 6 7 8 9 10 11 12 14 15 16 16 17 18 19 20 21 21 22 23 24 24 24 24 24 24 24 24 23 22 23 24 23 23 23 22 23 25 26
12 11 9 8 8 8 8 8 7 8 8 8 8 7 7 6 5 4 4 4 4 5 6 7 7 7 7 8 7 7 8 7 6 6 6 5 5 5 4 3 3 2 2 1 1 1 2 3 3 4 4 5 6 8 10 11 12 13 14 15 16 18 19 19 20 21 22 23 23 23 23 23 23 22 22 21 21 22 23 24 24 24 24 25 26
10 10 10 9 9 9 9 9 9 9 9 8 8 7 6 5 6 6 6 6 7 7 9 9 9 10 10 10 10 10 10 10 10 9 9 8 8 8 7 7 6 5 5 4 3 3 2 2 2 2 3 3 4 6 7 7 8 9 9 10 11 12 14 15 17 17 18 20 21 21 20 20 20 20 19 19 20 20 21 21 22 22 23 23 24
8 9 9 8 8 8 9 9 9 9 8 7 7 6 6 6 7 7 8 9 9 9 10 10 11 11 12 11 11 11 12 11 11 11 11 11 11 11 10 9 8 7 7 7 6 5 5 5 5 6 6 6 7 8 9 9 9 9 10 10 10 10 11 12 13 14 14 16 17 17 17 17 17 17 18 18 19 20 20 19 18 18 19 20 20
7 7 7 7 8 7 7 7 8 8 7 6 6 6 6 7 8 9 10 10 9 9 9 10 11 13 13 12 11 11 11 11 10 10 10 10 11 11 10 10 9 9 9 9 9 9 9 9 9 9 10 10 11 11 12 12 12 12 12 12 12 12 12 12 12 12 12 12 12 12 12 12 12 12 12 13 13 14 15 15 14 14 16 18 18
Wind_Direction
198 200 211 208 203 199 190 185 182 180 187 192 195 192 198 209 213 214 211 208 207 201 196 196 194 195 199 195 193 191 185 184 188 191 192 193 197 196 186 182 185 190 190 191 199 205 209 213 213 210 204 202 200 195 196 198 196 198 198 195 192 188 175 171 181 173 155 143 142 145 140 142 163 160 155 160 162 168 176 178 179 183 175 169 187
200 202 207 207 208 204 192 185 188 184 189 196 197 196 199 207 212 215 214 210 202 194 196 198 196 198 199 191 185 187 186 184 187 190 190 194 195 192 189 187 186 190 193 196 201 204 210 214 212 206 202 202 197 196 199 196 196 196 194 190 184 184 178 173 173 161 156 156 149 144 140 139 144 154 167 167 151 151 158 166 178 180 173 171 178
204 203 203 209 214 209 198 196 195 194 199 202 202 194 188 194 205 213 215 215 206 197 200 199 196 198 195 185 181 185 187 186 188 190 190 193 193 190 191 191 192 195 198 200 201 203 207 208 209 204 199 196 193 196 199 197 198 194 189 188 185 185 184 176 171 162 161 169 165 160 166 165 154 161 170 154 139 136 132 146 166 171 180 185 171
201 202 201 206 211 208 203 203 201 205 206 201 206 196 185 187 193 202 207 210 210 201 197 195 192 192 186 181 183 185 188 187 187 190 190 191 191 191 194 195 196 199 199 200 201 203 202 203 208 204 198 193 189 194 200 198 198 195 190 187 184 188 189 188 182 172 162 171 183 184 191 195 172 157 153 137 136 135 125 129 140 148 174 182 167
199 199 197 197 200 203 204 208 213 216 208 199 204 200 194 193 192 202 208 205 204 195 190 191 185 181 178 181 185 185 186 185 185 186 187 191 192 191 196 199 197 194 193 194 198 198 199 203 208 209 207 201 192 190 198 199 192 192 195 188 184 184 185 197 193 183 175 176 190 189 196 221 181 150 147 127 124 121 120 127 130 141 159 156 151
198 193 193 193 194 201 209 219 222 214 202 200 199 193 199 202 195 202 204 196 199 195 188 185 176 174 181 182 181 181 182 183 184 185 187 191 189 188 197 199 192 189 186 190 196 195 197 201 203 208 210 206 202 194 194 199 189 189 198 192 189 186 179 188 195 191 191 188 187 176 185 243 152 156 165 138 128 125 124 130 131 136 143 143 140
194 184 185 188 185 192 203 210 207 195 197 201 193 185 190 196 199 205 198 191 202 198 183 175 172 177 183 181 177 178 181 184 186 188 190 190 186 187 192 189 184 184 183 189 194 191 193 195 195 199 201 201 203 198 194 197 193 190 193 189 190 193 183 181 191 195 200 202 195 177 169 175 152 171 182 158 150 147 137 139 147 147 139 140 144
184 173 171 177 177 178 181 186 187 182 188 197 196 187 181 184 196 208 206 204 210 200 183 178 178 181 181 178 176 176 182 186 185 186 186 186 186 184 182 179 179 181 183 188 189 188 190 188 188 191 191 189 188 189 188 189 192 189 187 185 186 193 188 179 186 191 193 207 206 192 174 168 164 177 193 177 162 152 147 147 150 151 153 157 156
178 167 158 161 166 169 170 177 184 182 181 196 200 184 181 191 196 207 216 216 211 199 186 183 184 181 175 174 173 173 182 186 182 179 178 179 180 175 172 175 177 180 183 186 186 186 187 184 182 183 181 181 180 185 189 187 191 190 188 189 187 191 190 183 188 191 189 200 203 194 183 180 177 180 193 190 167 155 155 155 152 152 161 164 159
162 157 155 157 163 172 179 181 185 192 197 203 199 181 176 187 190 198 212 211 203 193 183 181 184 178 169 171 175 177 185 185 177 173 170 171 174 173 173 175 177 182 183 184 185 185 187 185 181 182 183 182 185 193 200 198 203 204 199 203 201 198 196 192 194 194 193 195 191 187 186 183 184 185 187 183 169 162 159 159 159 161 164 161 158
152 154 162 171 179 183 187 183 177 179 183 189 192 179 167 171 176 180 191 192 188 184 179 180 182 176 170 177 182 183 184 178 170 168 168 172 175 174 176 176 177 182 183 186 189 185 186 186 181 183 186 186 189 196 200 205 213 214 207 208 210 205 202 199 200 201 202 200 193 190 186 178 180 191 187 181 175 165 157 156 157 157 158 156 154
166 171 176 188 196 193 190 181 173 170 173 181 185 175 165 166 167 164 172 182 182 179 179 181 181 177 177 184 190 190 182 171 168 170 173 176 174 170 173 176 176 177 181 186 189 184 181 182 179 181 186 187 189 195 198 202 207 207 202 202 202 202 199 191 199 210 204 200 199 196 182 170 184 194 181 178 175 166 158 154 152 146 139 142 143
166 177 183 186 190 188 183 177 175 178 178 177 178 174 167 166 167 168 176 182 181 179 179 180 181 180 180 182 189 192 181 172 174 175 175 173 171 171 171 173 175 176 177 178 179 175 168 171 173 173 180 183 187 197 200 195 191 186 190 189 182 184 178 167 187 195 178 180 193 198 188 179 186 184 174 174 167 159 157 152 150 144 139 142 141
169 178 182 177 176 178 177 176 175 175 178 176 175 174 169 170 176 179 181 182 181 179 178 179 181 182 182 183 186 185 176 174 178 179 176 173 174 177 174 175 177 174 172 170 167 165 161 166 172 172 180 186 190 194 189 182 174 164 173 172 161 159 149 142 153 153 153 167 181 190 192 184 180 176 170 169 163 159 159 154 149 147 145 144 142
174 176 178 174 177 178 176 176 171 165 174 178 175 177 178 178 180 183 183 183 181 179 178 179 180 181 184 188 185 178 172 175 181 181 181 180 180 180 176 174 174 170 168 167 163 163 166 171 175 177 182 181 176 171 164 165 161 148 147 147 140 139 135 133 134 128 128 145 163 177 183 180 177 172 166 162 161 159 159 158 153 149 147 143 144
169 175 178 176 179 179 175 176 168 159 170 178 178 183 187 183 182 185 185 183 182 182 182 180 180 184 186 185 182 176 173 178 183 182 181 181 179 177 174 172 171 169 169 168 165 167 172 174 171 169 170 165 160 156 153 153 150 140 135 132 128 128 131 133 132 126 119 119 138 156 166 178 176 163 160 159 156 155 156 155 152 152 150 146 148
158 164 167 169 173 175 174 178 174 163 169 179 185 189 191 186 184 185 183 182 184 187 189 186 184 187 187 182 178 175 176 181 182 177 175 174 172 173 173 172 172 173 173 170 168 170 172 169 159 155 160 162 159 154 153 154 148 138 132 129 130 131 133 140 139 137 130 116 126 143 152 172 172 158 158 157 151 150 151 147 144 151 154 152 152
145 147 148 154 164 173 178 182 184 175 173 182 189 192 192 186 183 183 183 183 185 190 194 191 187 188 187 183 177 172 174 178 177 174 172 171 170 171 174 176 176 178 177 172 169 170 168 161 154 151 154 162 163 157 157 156 148 141 137 134 138 136 133 142 143 145 145 125 119 136 148 163 166 158 155 150 143 140 138 135 134 141 150 156 157
135 139 140 145 156 166 171 178 185 182 180 187 193 194 190 185 182 185 186 184 187 193 195 193 189 187 188 185 178 172 173 173 174 175 172 170 172 173 174 176 176 179 177 172 169 168 164 160 158 153 150 159 167 165 162 158 151 147 143 141 142 134 122 131 134 138 149 138 123 128 141 154 158 153 149 144 137 133 130 125 124 122 124 138 152
139 139 138 144 154 154 151 162 176 182 183 187 192 190 187 185 184 186 187 186 189 193 194 194 191 186 187 186 180 174 173 174 175 176 173 174 175 174 173 173 174 179 177 172 170 167 164 163 164 158 151 155 165 169 166 161 156 150 146 146 143 133 126 129 128 130 140 140 129 126 133 143 146 146 146 144 140 137 131 123 121 114 110 118 134
134 133 133 136 149 153 148 153 165 179 187 188 189 185 184 190 190 187 187 188 190 192 193 194 191 186 185 185 183 178 176 177 177 175 176 179 176 172 174 172 170 178 178 174 171 169 167 167 166 163 156 152 161 167 166 162 159 156 154 150 141 135 133 129 124 124 128 129 124 122 131 139 142 147 150 149 147 142 134 128 124 118 116 119 124
104 118 133 141 156 163 162 162 164 175 188 189 188 184 187 196 196 190 188 190 191 191 193 194 190 187 186 185 184 180 178 179 178 174 175 177 175 172 174 172 169 175 178 175 174 173 171 169 166 166 163 156 157 162 162 160 160 159 152 143 138 138 136 128 121 118 119 122 121 120 130 140 145 148 150 150 150 148 145 143 137 132 133 132 134
89 105 125 137 143 148 156 171 175 179 188 191 189 185 188 197 198 195 193 195 194 192 194 196 193 190 188 188 188 185 181 180 176 174 174 175 176 174 173 174 174 175 174 176 181 179 175 172 169 170 168 163 161 161 159 157 154 149 142 138 138 138 134 127 120 114 113 117 121 125 131 141 146 145 146 150 154 156 160 166 161 157 158 159 160
71 85 105 117 120 130 144 166 185 189 191 194 194 192 194 195 197 197 192 192 196 195 197 199 198 197 194 193 194 190 185 181 176 176 178 178 178 176 174 176 179 177 174 177 184 182 177 175 173 172 171 168 167 162 157 152 147 141 138 137 137 135 132 128 125 122 119 116 120 128 135 144 149 148 151 158 162 165 171 178 184 191 197 199 194
69 81 98 106 107 115 125 144 168 174 181 200 210 215 218 208 201 199 189 184 190 194 200 203 202 203 202 200 200 194 188 184 180 181 181 180 180 177 176 178 179 180 179 179 182 180 178 178 175 173 172 169 166 162 156 152 148 142 140 138 137 137 134 133 132 128 126 127 129 137 144 153 158 160 164 170 178 185 189 198 212 221 228 233 228
88 91 102 109 109 102 98 113 122 121 157 208 220 222 229 221 214 206 189 183 190 194 200 204 203 205 206 205 201 192 184 182 186 190 187 182 183 180 177 178 178 181 182 182 182 181 179 176 172 172 170 166 164 162 158 156 152 148 147 144 142 142 139 138 136 131 132 136 139 151 163 169 173 179 187 193 203 211 214 220 226 228 227 237 244
92 94 101 109 111 106 99 103 102 103 134 194 212 212 222 230 217 199 183 185 194 199 200 202 203 202 201 203 199 188 182 184 190 192 188 183 184 182 175 175 178 181 183 182 182 181 176 171 170 171 169 166 167 166 164 163 160 158 156 153 152 151 149 150 147 144 147 143 143 158 171 178 187 194 204 213 221 227 229 227 229 229 225 233 244
89 91 98 106 111 112 110 109 105 112 132 147 163 179 197 206 183 171 176 184 191 198 200 200 202 201 200 202 199 190 188 194 196 191 183 180 183 181 173 171 175 180 182 180 180 180 175 171 171 170 170 171 171 171 171 168 167 168 165 164 165 163 165 169 166 165 167 158 154 162 164 177 196 203 208 217 222 227 232 235 238 239 234 235 238
87 88 96 104 109 113 115 113 109 115 129 133 134 136 134 137 144 154 167 178 188 197 201 199 201 205 204 199 195 190 188 191 194 190 182 179 182 181 174 171 174 175 175 172 174 178 175 173 171 167 172 176 174 175 178 174 171 175 175 176 181 181 185 188 186 186 187 179 174 181 189 201 219 225 226 228 229 228 230 234 239 244 245 243 239
90 89 96 106 111 113 114 115 116 120 122 120 124 133 135 129 129 143 157 165 178 195 205 208 208 208 206 199 191 188 187 188 193 195 189 182 181 179 174 173 176 173 168 164 165 169 170 171 171 170 177 182 182 186 190 187 184 184 186 194 200 197 196 199 202 204 206 207 208 218 231 239 244 247 247 248 247 247 245 241 242 245 247 244 241
82 84 92 105 111 112 113 113 112 114 116 113 111 122 136 135 132 140 148 150 162 178 188 198 203 204 204 199 189 184 187 190 194 197 193 186 184 181 174 172 176 173 169 164 159 160 162 166 172 177 184 191 197 201 200 199 199 196 197 203 205 203 201 203 208 211 217 224 227 234 248 257 261 260 260 258 254 255 256 254 255 256 254 250 243
73 81 95 104 106 108 113 114 110 106 105 103 101 105 110 112 111 112 115 124 143 153 149 142 145 162 180 191 186 179 179 183 189 197 199 196 194 187 172 167 174 174 169 165 163 165 169 172 175 183 196 205 210 212 210 208 208 207 205 204 203 210 211 212 217 218 221 229 234 243 254 263 267 267 268 270 268 265 264 263 263 261 260 257 249
73 78 92 100 101 102 105 108 109 107 101 95 93 96 96 94 92 94 98 104 112 118 124 125 119 115 124 155 174 171 173 180 188 197 201 200 203 198 180 174 181 180 174 175 183 188 186 189 192 197 211 218 217 217 218 217 216 218 214 207 208 217 219 219 223 224 226 230 234 242 253 264 270 270 270 272 273 273 271 269 268 265 262 258 252
78 81 93 101 102 101 100 101 103 105 104 100 94 92 91 89 87 86 90 98 104 106 109 116 118 115 118 132 149 162 175 185 191 196 198 198 207 213 205 197 198 198 200 203 204 198 194 199 205 208 218 225 223 220 221 220 221 222 219 215 217 221 223 225 228 229 232 236 239 245 250 257 264 269 272 273 275 278 278 273 270 268 264 259 252
83 88 98 104 103 101 101 101 100 101 102 102 99 95 91 89 86 85 85 89 98 103 103 105 109 115 124 134 142 149 161 172 182 193 194 192 198 205 205 204 204 206 213 227 227 210 199 199 204 211 222 228 227 226 225 224 223 223 222 223 226 228 230 233 235 236 238 242 247 252 254 257 259 262 268 272 274 278 279 274 268 266 262 257 249
89 94 100 102 102 101 102 101 101 100 97 95 96 98 99 96 94 91 87 88 94 98 97 97 100 107 115 123 132 142 152 157 162 177 185 184 187 192 194 198 204 210 222 238 241 223 208 205 211 220 230 234 232 230 229 227 226 226 227 228 231 234 236 238 240 242 244 247 252 255 258 262 264 264 267 270 272 276 276 270 264 259 254 251 246
88 93 95 96 97 97 99 100 101 100 97 95 97 100 103 104 102 98 95 95 96 95 94 96 98 99 102 109 117 124 132 137 141 158 177 184 188 191 191 194 203 215 227 237 239 231 219 216 222 223 226 233 234 232 233 233 231 231 232 233 237 240 242 244 246 248 249 252 256 257 258 262 265 266 269 273 275 275 272 264 257 251 249 251 245
94 93 93 93 92 91 92 94 95 95 94 96 100 101 102 103 103 103 102 100 97 94 93 94 94 91 92 95 98 105 113 119 127 143 159 165 169 175 178 186 198 207 214 222 230 233 224 220 226 223 218 228 236 234 235 237 237 238 240 242 245 247 250 254 256 257 259 260 260 260 261 263 266 267 270 276 278 272 265 258 251 244 243 246 244
99 97 95 93 92 91 90 89 89 89 89 91 94 95 95 96 99 101 101 98 96 94 92 92 92 91 90 90 88 90 94 97 101 109 124 139 149 159 169 183 195 197 198 203 207 213 213 215 225 227 222 232 242 241 240 242 244 246 248 250 254 257 260 264 264 264 263 261 262 264 265 264 264 266 270 274 270 262 257 254 246 240 239 244 248
98 97 96 95 95 95 92 87 81 81 85 88 89 87 86 88 94 97 97 95 93 92 92 93 94 95 95 93 92 92 93 93 93 92 94 102 113 124 145 178 200 200 205 210 200 206 224 223 231 242 240 243 249 250 251 253 254 255 256 258 262 262 261 262 261 261 263 264 266 269 268 266 265 267 268 264 253 246 248 247 242 242 246 252 259
96 96 97 98 99 97 93 88 83 80 81 84 86 86 84 83 86 89 91 93 94 94 95 95 96 98 98 96 95 94 95 95 95 93 89 89 93 96 98 98 122 164 180 193 182 197 243 250 266 276 271 269 270 269 272 274 270 268 266 265 266 265 265 267 265 260 262 269 270 265 265 266 266 264 259 250 242 240 243 242 239 241 247 254 262
89 90 91 93 94 91 87 86 84 83 81 77 77 84 87 86 85 84 87 92 97 99 99 98 98 98 97 96 96 95 94 91 91 92 90 88 90 92 93 86 77 80 87 87 92 94 94 118 263 269 275 290 288 273 272 276 275 276 275 273 276 275 274 281 285 268 257 261 262 260 264 268 267 261 255 248 244 245 247 246 244 242 242 246 253
87 85 84 85 85 84 81 78 76 76 77 73 68 71 76 80 86 85 84 84 87 93 99 101 102 99 94 94 96 94 92 90 91 93 92 91 94 96 97 95 86 82 78 73 74 77 82 97 148 258 280 302 305 271 259 265 271 279 282 283 289 290 283 287 295 284 267 262 263 266 269 268 264 262 260 257 255 253 251 252 253 252 249 245 246
89 83 79 76 72 71 72 73 69 68 70 70 67 63 59 61 71 74 73 73 73 76 80 82 91 102 93 88 89 84 79 76 78 84 85 86 93 98 104 114 123 136 153 167 172 161 155 172 206 239 262 274 277 272 269 268 271 276 278 279 283 286 285 286 288 286 283 279 275 275 276 274 271 268 265 262 262 259 256 257 259 259 256 248 241
86 80 76 71 65 63 64 64 62 60 59 61 64 66 63 64 66 63 63 69 69 66 64 59 57 57 51 40 24 9 16 27 24 12 21 67 195 205 207 208 204 205 212 219 222 218 214 222 233 240 251 261 268 273 276 276 274 272 272 272 272 273 276 278 279 278 278 278 276 276 276 276 274 273 270 267 265 263 262 262 262 262 261 257 247
78 74 74 72 68 65 62 62 64 62 60 59 61 65 69 71 71 68 66 68 69 69 70 71 72 73 75 77 75 68 68 68 67 213 237 235 229 226 228 225 227 231 234 237 242 243 244 249 254 258 262 266 269 272 275 276 277 276 275 274 274 275 276 278 278 277 276 275 273 273 273 274 274 274 275 274 272 269 267 267 266 263 263 264 260
77 71 70 69 67 62 55 57 66 71 73 74 71 73 75 75 75 76 72 69 68 72 76 83 87 91 91 89 90 93 95 93 94 100 103 107 130 162 202 215 221 231 238 245 254 258 260 263 268 270 272 274 275 274 275 276 277 278 278 278 278 278 278 279 279 279 278 276 274 274 274 275 276 277 277 277 275 274 273 273 272 268 265 266 270
73 71 72 71 72 69 64 66 73 74 77 79 80 83 86 90 96 97 90 83 83 87 90 90 89 91 91 89 86 87 88 86 85 88 92 93 94 96 94 94 101 113 120 134 178 262 275 274 276 280 281 283 284 283 282 281 280 279 278 278 279 279 279 278 277 276 277 277 276 276 277 278 279 281 280 278 274 272 273 273 271 266 263 264 267
71 71 73 73 74 73 70 72 75 76 77 77 76 79 85 95 105 107 104 102 100 98 97 95 92 89 85 81 79 78 78 78 76 75 76 78 78 78 77 77 79 83 83 81 74 62 38 16 7 343 325 321 312 305 305 305 304 300 296 292 288 286 285 284 282 281 280 280 280 281 282 283 283 283 282 279 274 270 271 274 272 266 261 260 260
73 73 73 74 77 75 71 72 74 74 75 76 78 84 89 92 98 100 100 99 97 94 94 96 99 100 93 84 80 79 77 75 72 69 65 63 62 60 56 52 49 47 45 42 36 26 14 5 358 346 336 327 318 314 314 314 313 313 313 312 311 308 303 300 299 295 289 287 288 289 290 291 290 287 285 282 278 273 271 275 279 276 269 265 261
73 74 69 68 72 68 60 65 72 73 73 75 82 91 96 101 108 110 105 98 93 92 90 93 103 110 105 94 87 84 82 79 76 73 67 58 53 47 40 34 27 20 16 12 5 357 350 344 338 331 325 320 315 312 310 309 307 305 305 305 307 308 308 308 308 305 301 298 296 295 295 296 294 292 291 289 286 281 276 276 282 283 276 268 258